Total_Precipitation_Accumulation
1.84 2.22 2.51 3.09 3.71 4.08 4.45 4.58 4.54 4.38 4.15 3.72 3.37 3.11 2.88 2.71 2.46 2.28 2.19 2.06 1.97 2.05 2.35 2.23 2.31 2.28 2.26 2.28 2.31 2.32 2.19 1.86 2.05 2.14 1.73 1.30 0.99 0.94 0.72 0.66 0.67 0.67 0.65
1.76 2.25 2.50 2.71 3.22 3.74 4.18 4.45 4.58 4.42 4.04 3.59 3.31 3.12 3.06 2.71 2.41 2.37 2.35 2.16 2.17 2.16 2.16 2.21 2.18 2.20 2.27 2.19 2.15 2.21 2.01 1.68 1.81 1.96 2.02 1.50 1.16 0.90 0.64 0.68 0.76 0.82 0.86
2.04 2.28 2.42 2.56 2.82 3.26 3.57 3.67 3.81 3.76 3.56 3.54 3.48 3.32 3.22 2.81 2.63 2.60 2.58 2.40 2.37 2.30 2.25 2.20 2.09 2.00 1.89 1.84 1.89 1.95 1.91 1.74 1.66 1.83 2.08 1.71 1.28 1.08 0.79 0.73 0.77 0.91 1.04
1.69 1.79 2.07 2.37 2.60 2.83 3.14 3.37 3.42 3.34 3.22 3.26 3.22 3.04 2.79 2.61 2.66 2.86 2.83 2.56 2.33 2.12 1.88 1.76 1.78 1.76 1.69 1.64 1.49 1.53 1.60 1.54 1.42 1.54 1.63 1.69 1.67 1.57 1.08 0.77 0.71 0.84 0.94
1.43 1.52 1.71 2.02 2.16 2.44 2.68 2.96 3.22 3.27 3.18 3.17 3.06 3.02 2.84 2.77 2.78 2.69 2.57 2.33 2.08 1.80 1.53 1.42 1.47 1.48 1.43 1.35 1.29 1.33 1.25 1.20 1.21 1.35 1.51 1.60 1.63 1.61 1.50 1.14 1.02 0.99 0.86
1.26 1.43 1.61 1.84 1.94 2.06 2.18 2.30 2.52 2.77 2.87 2.87 2.79 2.75 2.63 2.56 2.46 2.26 2.06 1.85 1.69 1.45 1.23 1.13 1.20 1.28 1.31 1.27 1.23 1.25 1.16 1.16 1.28 1.29 1.37 1.50 1.48 1.48 1.56 1.33 1.20 1.12 0.92
0.97 1.19 1.32 1.42 1.53 1.65 1.73 1.83 2.03 2.31 2.38 2.34 2.32 2.37 2.32 2.26 2.15 2.09 1.92 1.69 1.46 1.18 1.11 1.11 1.15 1.19 1.25 1.17 1.16 1.14 1.17 1.27 1.35 1.31 1.29 1.37 1.39 1.42 1.53 1.49 1.34 1.25 1.13
0.74 0.88 1.08 1.27 1.33 1.37 1.46 1.55 1.80 1.96 2.01 1.91 1.98 2.09 2.08 2.13 2.03 2.05 1.85 1.56 1.34 1.22 1.26 1.22 1.14 1.10 1.14 1.07 1.17 1.12 1.14 1.24 1.30 1.18 1.33 1.36 1.36 1.51 1.63 1.69 1.68 1.52 1.36
0.72 0.77 0.83 0.98 1.04 1.07 1.15 1.26 1.60 1.80 1.85 1.82 1.89 1.97 2.01 1.98 1.87 1.76 1.60 1.37 1.33 1.28 1.37 1.34 1.27 1.20 1.20 1.24 1.34 1.32 1.35 1.48 1.47 1.46 1.59 1.54 1.45 1.49 1.53 1.62 1.70 1.78 1.59
0.52 0.56 0.55 0.62 0.74 0.90 1.08 1.22 1.32 1.52 1.68 1.71 1.72 1.74 1.84 1.76 1.64 1.57 1.39 1.21 1.12 1.15 1.29 1.35 1.30 1.24 1.24 1.34 1.45 1.50 1.63 1.73 1.71 1.74 1.80 1.75 1.63 1.62 1.68 1.67 1.75 1.86 1.75
0.40 0.44 0.50 0.55 0.69 0.81 0.97 1.13 1.18 1.30 1.43 1.49 1.58 1.56 1.52 1.54 1.52 1.40 1.24 1.17 1.12 1.10 1.12 1.20 1.27 1.24 1.26 1.34 1.41 1.43 1.65 1.75 1.73 1.69 1.69 1.63 1.63 1.60 1.55 1.62 1.73 1.84 1.85
0.47 0.48 0.55 0.61 0.71 0.80 0.85 0.91 0.98 1.09 1.23 1.39 1.57 1.63 1.57 1.56 1.49 1.31 1.18 1.14 1.12 1.13 1.15 1.22 1.23 1.14 1.12 1.25 1.32 1.37 1.51 1.60 1.58 1.53 1.53 1.39 1.39 1.42 1.37 1.45 1.52 1.61 1.80
0.53 0.55 0.59 0.58 0.64 0.73 0.81 0.76 0.80 0.93 1.09 1.32 1.65 1.79 1.75 1.64 1.51 1.34 1.16 1.09 1.10 1.15 1.15 1.16 1.18 1.19 1.26 1.37 1.39 1.38 1.36 1.37 1.41 1.53 1.61 1.44 1.41 1.36 1.37 1.38 1.36 1.41 1.56
0.59 0.65 0.61 0.66 0.70 0.68 0.76 0.76 0.79 0.85 0.99 1.17 1.41 1.52 1.42 1.34 1.28 1.19 1.08 1.02 1.03 1.10 1.13 1.16 1.16 1.21 1.33 1.36 1.41 1.42 1.34 1.27 1.27 1.34 1.39 1.41 1.41 1.38 1.46 1.43 1.40 1.39 1.48
0.53 0.54 0.51 0.57 0.64 0.66 0.73 0.68 0.63 0.63 0.73 0.91 1.03 1.14 1.13 1.08 1.04 1.04 1.03 0.98 1.07 1.12 1.18 1.22 1.21 1.18 1.20 1.14 1.13 1.16 1.16 1.19 1.14 1.08 1.08 1.13 1.23 1.25 1.26 1.19 1.30 1.41 1.45
0.36 0.35 0.44 0.51 0.51 0.51 0.55 0.47 0.49 0.58 0.69 0.80 0.90 1.03 1.14 1.12 1.04 1.01 1.03 1.00 1.08 1.13 1.17 1.17 1.23 1.22 1.03 1.10 1.09 1.09 1.21 1.27 1.24 1.17 1.10 1.05 1.05 0.99 0.96 0.95 1.02 1.20 1.32
0.31 0.26 0.30 0.39 0.41 0.44 0.42 0.45 0.53 0.64 0.75 0.86 0.92 1.03 1.14 1.19 1.15 1.07 1.13 1.13 1.19 1.26 1.24 1.20 1.20 1.22 1.25 1.27 1.15 1.01 0.98 1.06 1.11 1.13 1.11 0.97 0.89 0.97 0.94 0.97 0.94 0.95 1.05
0.32 0.25 0.25 0.28 0.35 0.41 0.48 0.55 0.66 0.81 0.88 0.94 1.01 1.13 1.23 1.24 1.24 1.26 1.32 1.42 1.48 1.48 1.45 1.39 1.31 1.34 1.37 1.30 1.10 1.01 0.94 0.99 1.04 1.09 1.13 1.12 1.04 1.03 1.11 1.15 1.10 1.02 0.99
0.34 0.32 0.29 0.36 0.44 0.48 0.52 0.68 0.84 1.00 1.05 1.03 1.08 1.19 1.31 1.38 1.45 1.50 1.51 1.56 1.63 1.59 1.54 1.54 1.57 1.53 1.58 1.55 1.30 1.20 1.11 1.14 1.17 1.21 1.21 1.18 1.10 1.16 1.13 1.12 1.12 1.06 1.01
0.41 0.40 0.39 0.47 0.57 0.63 0.68 0.81 0.91 1.00 1.13 1.19 1.31 1.48 1.64 1.68 1.73 1.87 1.95 1.86 1.77 1.66 1.70 1.71 1.73 1.73 1.79 1.91 1.65 1.47 1.38 1.41 1.38 1.42 1.34 1.25 1.18 1.20 1.15 1.05 1.08 1.07 1.07
0.50 0.47 0.47 0.55 0.68 0.79 0.88 1.00 1.13 1.22 1.21 1.29 1.44 1.65 1.80 1.88 1.95 2.09 2.17 2.15 2.13 2.10 2.03 1.94 1.92 1.90 1.92 2.03 1.79 1.61 1.52 1.57 1.64 1.62 1.48 1.44 1.39 1.23 1.20 1.15 1.15 1.19 1.20
0.60 0.59 0.59 0.70 0.84 0.97 1.02 1.12 1.18 1.21 1.24 1.30 1.42 1.55 1.69 1.72 1.80 2.02 2.14 2.21 2.24 2.21 2.12 2.04 1.91 1.90 1.87 1.79 1.66 1.52 1.46 1.57 1.72 1.79 1.67 1.57 1.47 1.26 1.20 1.13 1.16 1.18 1.09
0.60 0.61 0.66 0.84 1.00 1.12 1.20 1.27 1.20 1.27 1.32 1.38 1.50 1.61 1.70 1.78 1.87 1.92 1.92 2.00 2.09 2.09 2.01 2.00 1.93 1.88 1.88 1.83 1.57 1.33 1.24 1.27 1.36 1.53 1.60 1.49 1.36 1.19 1.07 1.05 1.03 0.95 0.85
0.48 0.52 0.61 0.72 0.82 0.92 1.03 1.17 1.26 1.34 1.41 1.48 1.52 1.59 1.70 1.74 1.76 1.88 1.96 2.02 2.12 2.22 2.13 2.02 1.94 1.89 1.83 1.71 1.52 1.31 1.21 1.24 1.32 1.42 1.49 1.37 1.25 1.10 1.02 0.97 0.89 0.83 0.87
0.48 0.51 0.61 0.66 0.73 0.78 0.86 0.96 1.06 1.19 1.29 1.36 1.42 1.47 1.51 1.59 1.66 1.71 1.79 1.81 1.87 1.86 1.83 1.78 1.78 1.77 1.71 1.55 1.46 1.34 1.22 1.26 1.37 1.42 1.49 1.39 1.34 1.27 1.19 1.11 1.05 1.03 1.04
0.54 0.57 0.61 0.62 0.66 0.71 0.84 0.94 1.03 1.18 1.32 1.42 1.44 1.40 1.38 1.43 1.48 1.51 1.49 1.47 1.39 1.36 1.32 1.32 1.33 1.32 1.27 1.18 1.07 1.03 1.03 1.07 1.21 1.28 1.44 1.50 1.47 1.43 1.36 1.25 1.15 1.10 1.05